EZY2050 EGAA-EGKK

Flight info

Callsign EZY2050
Flight time 1h 2m
Altitude 33000
Route LISBO DCT RINGA DCT BABGU DCT ETIGA DCT INKOB Q39 NOMSU UQ4 WAL L151 DISIT
Aircraft A320/M-SDE3FGHIRWY/LB1

Departure

Time 2026-05-04 19:53
Airport Belfast International Airport (EGAA)

Arrival

Time 2026-05-04 20:55
Airport London Gatwick Airport (EGKK)
Time Latitude Longitude Altitude Speed Heading
2026-05-04 19:29 54.66096 -6.21363 257 ft 0 kts 244°
2026-05-04 19:45 54.66103 -6.21338 257 ft 4 kts 241°
2026-05-04 19:45 54.66117 -6.21299 257 ft 4 kts 226°
2026-05-04 19:46 54.66137 -6.21275 257 ft 4 kts 181°
2026-05-04 19:46 54.66147 -6.21276 257 ft 0 kts 155°
2026-05-04 19:48 54.66131 -6.21264 257 ft 7 kts 155°
2026-05-04 19:48 54.66087 -6.21229 257 ft 8 kts 155°
2026-05-04 19:48 54.66026 -6.21241 257 ft 10 kts 225°
2026-05-04 19:49 54.65997 -6.21340 257 ft 8 kts 246°
2026-05-04 19:49 54.65962 -6.21470 257 ft 16 kts 244°
2026-05-04 19:49 54.65915 -6.21645 257 ft 16 kts 245°
2026-05-04 19:49 54.65869 -6.21811 257 ft 15 kts 244°
2026-05-04 19:50 54.65821 -6.21992 257 ft 18 kts 245°
2026-05-04 19:50 54.65775 -6.22201 257 ft 19 kts 258°
2026-05-04 19:50 54.65755 -6.22439 257 ft 21 kts 263°
2026-05-04 19:50 54.65744 -6.22680 257 ft 20 kts 266°
2026-05-04 19:51 54.65701 -6.22922 256 ft 21 kts 235°
2026-05-04 19:51 54.65612 -6.23131 257 ft 22 kts 233°
2026-05-04 19:51 54.65519 -6.23324 257 ft 19 kts 211°
2026-05-04 19:51 54.65403 -6.23400 257 ft 16 kts 184°
2026-05-04 19:52 54.65310 -6.23332 258 ft 13 kts 134°
2026-05-04 19:52 54.65316 -6.23191 257 ft 13 kts 63°
2026-05-04 19:52 54.65377 -6.22964 258 ft 44 kts 65°
2026-05-04 19:52 54.65614 -6.22085 253 ft 114 kts 65°
2026-05-04 19:53 54.66025 -6.20579 396 ft 150 kts 63°
2026-05-04 19:53 54.66459 -6.18959 1060 ft 152 kts 65°
2026-05-04 19:53 54.66899 -6.17236 1575 ft 166 kts 63°
2026-05-04 19:53 54.67310 -6.15225 1891 ft 191 kts 82°
2026-05-04 19:54 54.67051 -6.12828 2184 ft 218 kts 112°
2026-05-04 19:54 54.66331 -6.10354 2554 ft 243 kts 118°
2026-05-04 19:54 54.65464 -6.07655 3046 ft 265 kts 118°
2026-05-04 19:54 54.64565 -6.04866 3877 ft 272 kts 119°
2026-05-04 19:55 54.63642 -6.01982 4780 ft 276 kts 119°
2026-05-04 19:55 54.62701 -5.99060 5667 ft 280 kts 122°
2026-05-04 19:55 54.61456 -5.96440 6519 ft 284 kts 134°
2026-05-04 19:55 54.60106 -5.93952 7326 ft 288 kts 134°
2026-05-04 19:56 54.58737 -5.91444 8168 ft 291 kts 134°
2026-05-04 19:56 54.57335 -5.88882 8996 ft 295 kts 134°
2026-05-04 19:56 54.55907 -5.86278 9769 ft 301 kts 134°
2026-05-04 19:56 54.54481 -5.83676 10022 ft 302 kts 134°
2026-05-04 19:57 54.53028 -5.81023 10398 ft 311 kts 134°
2026-05-04 19:57 54.51489 -5.78219 10647 ft 335 kts 134°
2026-05-04 19:57 54.49826 -5.75197 10852 ft 357 kts 134°
2026-05-04 19:57 54.48072 -5.72015 11365 ft 367 kts 134°
2026-05-04 19:58 54.46327 -5.68848 12039 ft 371 kts 134°
2026-05-04 19:58 54.44534 -5.65599 12766 ft 374 kts 134°
2026-05-04 19:58 54.42731 -5.62336 13485 ft 378 kts 134°
2026-05-04 19:58 54.40913 -5.59046 14143 ft 381 kts 134°
2026-05-04 19:59 54.39199 -5.55549 14759 ft 385 kts 126°
2026-05-04 19:59 54.37680 -5.51788 15362 ft 389 kts 125°
2026-05-04 19:59 54.36138 -5.47961 15986 ft 391 kts 125°
2026-05-04 19:59 54.34578 -5.44100 16590 ft 394 kts 125°
2026-05-04 20:00 54.33011 -5.40234 17182 ft 396 kts 125°
2026-05-04 20:00 54.31429 -5.36344 17760 ft 399 kts 124°
2026-05-04 20:00 54.29824 -5.32413 18328 ft 402 kts 125°
2026-05-04 20:00 54.28210 -5.28473 18792 ft 406 kts 125°
2026-05-04 20:01 54.26548 -5.24593 19254 ft 409 kts 127°
2026-05-04 20:01 54.24769 -5.20750 19768 ft 411 kts 129°
2026-05-04 20:01 54.22927 -5.16962 20236 ft 414 kts 130°
2026-05-04 20:01 54.21075 -5.13236 20675 ft 417 kts 130°
2026-05-04 20:02 54.19165 -5.09404 21148 ft 420 kts 130°
2026-05-04 20:02 54.17296 -5.05622 21577 ft 423 kts 130°
2026-05-04 20:02 54.15400 -5.01743 22023 ft 426 kts 129°
2026-05-04 20:02 54.13503 -4.97827 22481 ft 428 kts 129°
2026-05-04 20:03 54.11605 -4.93893 22971 ft 429 kts 128°
2026-05-04 20:03 54.09704 -4.89948 23419 ft 432 kts 128°
2026-05-04 20:03 54.07787 -4.85979 23818 ft 434 kts 129°
2026-05-04 20:03 54.05883 -4.82052 24182 ft 436 kts 129°
2026-05-04 20:04 54.03946 -4.78061 24489 ft 439 kts 128°
2026-05-04 20:04 54.02035 -4.73967 24839 ft 441 kts 127°
2026-05-04 20:04 54.00174 -4.69809 25188 ft 443 kts 126°
2026-05-04 20:04 53.98330 -4.65594 25496 ft 445 kts 126°
2026-05-04 20:05 53.96480 -4.61346 25848 ft 447 kts 126°
2026-05-04 20:05 53.94623 -4.57111 26176 ft 449 kts 126°
2026-05-04 20:05 53.92726 -4.52838 26518 ft 451 kts 126°
2026-05-04 20:05 53.90818 -4.48582 26831 ft 453 kts 126°
2026-05-04 20:06 53.88915 -4.44372 27221 ft 453 kts 126°
2026-05-04 20:06 53.86995 -4.40133 27541 ft 454 kts 126°
2026-05-04 20:06 53.85119 -4.35822 27848 ft 455 kts 124°
2026-05-04 20:06 53.83299 -4.31420 28138 ft 457 kts 123°
2026-05-04 20:07 53.81506 -4.26947 28427 ft 459 kts 122°
2026-05-04 20:07 53.79721 -4.22455 28699 ft 461 kts 122°
2026-05-04 20:07 53.77919 -4.17946 29007 ft 462 kts 123°
2026-05-04 20:07 53.76124 -4.13508 29440 ft 460 kts 123°
2026-05-04 20:08 53.74303 -4.09061 29888 ft 458 kts 123°
2026-05-04 20:08 53.72478 -4.04647 30276 ft 457 kts 123°
2026-05-04 20:08 53.70646 -4.00246 30612 ft 457 kts 123°
2026-05-04 20:08 53.68813 -3.95854 30946 ft 456 kts 123°
2026-05-04 20:09 53.66988 -3.91475 31308 ft 454 kts 123°
2026-05-04 20:09 53.65199 -3.87178 31789 ft 450 kts 123°
2026-05-04 20:09 53.63407 -3.82872 32173 ft 448 kts 123°
2026-05-04 20:09 53.61615 -3.78572 32526 ft 447 kts 123°
2026-05-04 20:10 53.59824 -3.74284 32870 ft 446 kts 123°
2026-05-04 20:10 53.58031 -3.69997 33055 ft 447 kts 123°
2026-05-04 20:10 53.56253 -3.65760 33087 ft 448 kts 123°
2026-05-04 20:11 53.52651 -3.57203 33083 ft 448 kts 123°
2026-05-04 20:11 53.49035 -3.48638 33087 ft 448 kts 123°
2026-05-04 20:12 53.45883 -3.39712 33088 ft 444 kts 110°
2026-05-04 20:12 53.43491 -3.30217 33084 ft 444 kts 111°
2026-05-04 20:13 53.41028 -3.20666 33079 ft 445 kts 114°
2026-05-04 20:13 53.37449 -3.12207 33078 ft 450 kts 133°
2026-05-04 20:14 53.32519 -3.05826 33084 ft 453 kts 143°
2026-05-04 20:14 53.27314 -2.99886 33075 ft 453 kts 143°
2026-05-04 20:15 53.22104 -2.93968 33071 ft 453 kts 143°
2026-05-04 20:15 53.16921 -2.88098 33083 ft 452 kts 143°
2026-05-04 20:16 53.11699 -2.82205 33081 ft 452 kts 143°
2026-05-04 20:16 53.06475 -2.76344 33073 ft 452 kts 143°
2026-05-04 20:17 53.01296 -2.70530 33062 ft 451 kts 143°
2026-05-04 20:17 52.96086 -2.64696 33078 ft 451 kts 143°
2026-05-04 20:18 52.90880 -2.58900 33074 ft 450 kts 143°
2026-05-04 20:18 52.85681 -2.53126 33069 ft 449 kts 143°
2026-05-04 20:19 52.80476 -2.47359 33061 ft 449 kts 144°
2026-05-04 20:19 52.75319 -2.41643 33058 ft 448 kts 144°
2026-05-04 20:20 52.70124 -2.35909 33069 ft 448 kts 145°
2026-05-04 20:20 52.64952 -2.30225 33062 ft 448 kts 145°
2026-05-04 20:21 52.59748 -2.24528 33052 ft 448 kts 145°
2026-05-04 20:21 52.51985 -2.16035 32602 ft 449 kts 145°
2026-05-04 20:22 52.49378 -2.13189 32335 ft 449 kts 146°
2026-05-04 20:22 52.46778 -2.10362 31850 ft 449 kts 146°
2026-05-04 20:22 52.44151 -2.07516 30757 ft 455 kts 147°
2026-05-04 20:22 52.41491 -2.04642 29589 ft 461 kts 147°
2026-05-04 20:23 52.38810 -2.01744 28451 ft 463 kts 147°
2026-05-04 20:23 52.36143 -1.98863 27341 ft 465 kts 148°
2026-05-04 20:23 52.33438 -1.95940 26311 ft 465 kts 148°
2026-05-04 20:23 52.30766 -1.93053 25675 ft 457 kts 149°
2026-05-04 20:24 52.28117 -1.90193 24904 ft 452 kts 149°
2026-05-04 20:24 52.25495 -1.87371 24155 ft 447 kts 149°
2026-05-04 20:24 52.22935 -1.84625 23396 ft 443 kts 149°
2026-05-04 20:24 52.20364 -1.81873 22652 ft 437 kts 149°
2026-05-04 20:25 52.18685 -1.80077 22213 ft 433 kts 149°
2026-05-04 20:25 52.16170 -1.77389 21545 ft 428 kts 149°
2026-05-04 20:25 52.13684 -1.74738 20896 ft 423 kts 149°
2026-05-04 20:25 52.11225 -1.72123 20273 ft 419 kts 149°
2026-05-04 20:26 52.08799 -1.69546 19767 ft 413 kts 148°
2026-05-04 20:26 52.06419 -1.67017 19469 ft 411 kts 148°
2026-05-04 20:26 52.04023 -1.64473 19104 ft 409 kts 148°
2026-05-04 20:26 52.01643 -1.61947 18748 ft 407 kts 148°
2026-05-04 20:27 51.99268 -1.59431 18392 ft 405 kts 148°
2026-05-04 20:27 51.96939 -1.56964 18011 ft 403 kts 148°
2026-05-04 20:27 51.94588 -1.54471 17661 ft 402 kts 148°
2026-05-04 20:27 51.92248 -1.51997 17311 ft 400 kts 148°
2026-05-04 20:28 51.89918 -1.49543 16963 ft 398 kts 148°
2026-05-04 20:28 51.87598 -1.47106 16623 ft 397 kts 148°
2026-05-04 20:28 51.85278 -1.44669 16275 ft 395 kts 148°
2026-05-04 20:28 51.82999 -1.42279 15931 ft 394 kts 148°
2026-05-04 20:29 51.80701 -1.39870 15587 ft 393 kts 148°
2026-05-04 20:29 51.78415 -1.37475 15242 ft 391 kts 147°
2026-05-04 20:29 51.76138 -1.35088 14926 ft 389 kts 147°
2026-05-04 20:29 51.73871 -1.32716 14704 ft 388 kts 147°
2026-05-04 20:30 51.71604 -1.30352 14464 ft 387 kts 147°
2026-05-04 20:30 51.69348 -1.28003 14199 ft 386 kts 147°
2026-05-04 20:30 51.67093 -1.25656 13952 ft 385 kts 147°
2026-05-04 20:30 51.64838 -1.23313 13706 ft 384 kts 147°
2026-05-04 20:31 51.62619 -1.21008 13464 ft 382 kts 147°
2026-05-04 20:31 51.60385 -1.18692 13220 ft 381 kts 147°
2026-05-04 20:31 51.58150 -1.16380 12988 ft 380 kts 147°
2026-05-04 20:31 51.55931 -1.14090 12756 ft 378 kts 147°
2026-05-04 20:32 51.53729 -1.11815 12520 ft 375 kts 147°
2026-05-04 20:32 51.51524 -1.09535 12284 ft 374 kts 147°
2026-05-04 20:32 51.49370 -1.07308 12059 ft 373 kts 147°
2026-05-04 20:32 51.47188 -1.05060 11823 ft 372 kts 147°
2026-05-04 20:33 51.45012 -1.02822 11594 ft 370 kts 147°
2026-05-04 20:33 51.42845 -1.00594 11366 ft 369 kts 148°
2026-05-04 20:33 51.40684 -0.98377 11131 ft 368 kts 148°
2026-05-04 20:33 51.38549 -0.96190 10946 ft 354 kts 148°
2026-05-04 20:34 51.36545 -0.94140 10813 ft 339 kts 148°
2026-05-04 20:34 51.34571 -0.92122 10702 ft 325 kts 148°
2026-05-04 20:34 51.32718 -0.90228 10573 ft 313 kts 147°
2026-05-04 20:34 51.30918 -0.88387 10451 ft 302 kts 147°
2026-05-04 20:35 51.29183 -0.86613 10286 ft 293 kts 147°
2026-05-04 20:35 51.27497 -0.84895 10110 ft 288 kts 148°
2026-05-04 20:35 51.25810 -0.83181 10009 ft 284 kts 148°
2026-05-04 20:35 51.24162 -0.81506 9834 ft 276 kts 148°
2026-05-04 20:36 51.22565 -0.79878 9669 ft 267 kts 148°
2026-05-04 20:36 51.21018 -0.78302 9513 ft 259 kts 148°
2026-05-04 20:36 51.19545 -0.76803 9368 ft 250 kts 148°
2026-05-04 20:36 51.18096 -0.75335 9223 ft 245 kts 148°
2026-05-04 20:37 51.16665 -0.73886 9078 ft 243 kts 148°
2026-05-04 20:37 51.15236 -0.72442 8940 ft 243 kts 148°
2026-05-04 20:37 51.13803 -0.70996 8797 ft 243 kts 147°
2026-05-04 20:37 51.12395 -0.69569 8656 ft 242 kts 147°
2026-05-04 20:38 51.10975 -0.68131 8518 ft 242 kts 147°
2026-05-04 20:38 51.09551 -0.66690 8371 ft 241 kts 147°
2026-05-04 20:38 51.08127 -0.65255 8233 ft 241 kts 147°
2026-05-04 20:38 51.06900 -0.64010 8111 ft 240 kts 145°
2026-05-04 20:39 51.05641 -0.62272 7971 ft 239 kts 131°
2026-05-04 20:39 51.04663 -0.60136 7832 ft 239 kts 118°
2026-05-04 20:39 51.03919 -0.57771 7691 ft 239 kts 116°
2026-05-04 20:39 51.03180 -0.55401 7540 ft 238 kts 116°
2026-05-04 20:40 51.02451 -0.53082 7400 ft 238 kts 116°
2026-05-04 20:40 51.01702 -0.50704 7246 ft 237 kts 116°
2026-05-04 20:40 51.00975 -0.48393 7123 ft 237 kts 116°
2026-05-04 20:40 51.00237 -0.46042 6980 ft 236 kts 116°
2026-05-04 20:41 50.99504 -0.43713 6834 ft 236 kts 116°
2026-05-04 20:41 50.98770 -0.41382 6706 ft 235 kts 115°
2026-05-04 20:41 50.98039 -0.39065 6560 ft 235 kts 116°
2026-05-04 20:41 50.97316 -0.36778 6434 ft 234 kts 116°
2026-05-04 20:42 50.96583 -0.34451 6288 ft 234 kts 116°
2026-05-04 20:42 50.95856 -0.32143 6150 ft 233 kts 115°
2026-05-04 20:42 50.95130 -0.29841 6012 ft 233 kts 116°
2026-05-04 20:42 50.94413 -0.27573 5876 ft 232 kts 115°
2026-05-04 20:43 50.93692 -0.25297 5743 ft 231 kts 116°
2026-05-04 20:43 50.92968 -0.23017 5610 ft 231 kts 115°
2026-05-04 20:43 50.92248 -0.20749 5469 ft 230 kts 116°
2026-05-04 20:43 50.91525 -0.18479 5340 ft 230 kts 115°
2026-05-04 20:44 50.90999 -0.16119 5214 ft 226 kts 92°
2026-05-04 20:44 50.91306 -0.13761 5089 ft 222 kts 59°
2026-05-04 20:44 50.92405 -0.12073 4958 ft 222 kts 25°
2026-05-04 20:44 50.93921 -0.11665 4837 ft 224 kts 352°
2026-05-04 20:45 50.95331 -0.12678 4696 ft 227 kts 318°
2026-05-04 20:45 50.96226 -0.14704 4576 ft 231 kts 292°
2026-05-04 20:45 50.96730 -0.17109 4437 ft 232 kts 289°
2026-05-04 20:45 50.97230 -0.19554 4318 ft 231 kts 289°
2026-05-04 20:46 50.97725 -0.21977 4195 ft 231 kts 289°
2026-05-04 20:46 50.98222 -0.24397 4124 ft 230 kts 289°
2026-05-04 20:46 50.98717 -0.26812 4127 ft 230 kts 289°
2026-05-04 20:46 50.99212 -0.29227 4127 ft 230 kts 289°
2026-05-04 20:47 50.99705 -0.31636 4038 ft 231 kts 289°
2026-05-04 20:47 51.00200 -0.34061 3922 ft 230 kts 289°
2026-05-04 20:47 51.00696 -0.36493 3789 ft 230 kts 289°
2026-05-04 20:47 51.01188 -0.38909 3662 ft 229 kts 289°
2026-05-04 20:48 51.01678 -0.41325 3536 ft 229 kts 289°
2026-05-04 20:48 51.02161 -0.43696 3428 ft 229 kts 289°
2026-05-04 20:48 51.02649 -0.46102 3305 ft 228 kts 289°
2026-05-04 20:48 51.03137 -0.48509 3171 ft 228 kts 289°
2026-05-04 20:49 51.03625 -0.50909 3064 ft 228 kts 290°
2026-05-04 20:49 51.04375 -0.53031 2985 ft 216 kts 320°
2026-05-04 20:49 51.05650 -0.54054 2999 ft 201 kts 354°
2026-05-04 20:49 51.07014 -0.54051 3011 ft 196 kts
2026-05-04 20:50 51.08362 -0.53864 3003 ft 193 kts 17°
2026-05-04 20:50 51.09536 -0.52898 3003 ft 190 kts 44°
2026-05-04 20:50 51.10288 -0.51203 2998 ft 190 kts 70°
2026-05-04 20:50 51.10611 -0.49154 3004 ft 191 kts 77°
2026-05-04 20:51 51.10899 -0.47094 3008 ft 191 kts 77°
2026-05-04 20:51 51.11188 -0.45032 3003 ft 191 kts 77°
2026-05-04 20:51 51.11479 -0.42964 2969 ft 192 kts 77°
2026-05-04 20:51 51.11762 -0.40941 2800 ft 186 kts 77°
2026-05-04 20:52 51.12032 -0.39012 2552 ft 172 kts 76°
2026-05-04 20:52 51.12286 -0.37201 2324 ft 161 kts 76°
2026-05-04 20:52 51.12522 -0.35513 2113 ft 152 kts 76°
2026-05-04 20:52 51.12746 -0.33911 1912 ft 145 kts 76°
2026-05-04 20:53 51.12959 -0.32384 1744 ft 141 kts 76°
2026-05-04 20:53 51.13174 -0.30847 1534 ft 140 kts 76°
2026-05-04 20:53 51.13385 -0.29331 1341 ft 140 kts 76°
2026-05-04 20:53 51.13594 -0.27831 1153 ft 140 kts 76°
2026-05-04 20:54 51.13801 -0.26314 941 ft 141 kts 77°
2026-05-04 20:54 51.14004 -0.24801 769 ft 140 kts 77°
2026-05-04 20:54 51.14225 -0.23274 596 ft 141 kts 76°
2026-05-04 20:54 51.14443 -0.21753 385 ft 141 kts 76°
2026-05-04 20:55 51.14648 -0.20228 226 ft 139 kts 76°
2026-05-04 20:55 51.14835 -0.18888 209 ft 106 kts 78°
2026-05-04 20:55 51.14936 -0.18161 208 ft 31 kts 76°
2026-05-04 20:55 51.15014 -0.17892 211 ft 18 kts 53°
2026-05-04 20:56 51.15078 -0.17772 211 ft 12 kts 33°
2026-05-04 20:56 51.15104 -0.17762 210 ft 0 kts
2026-05-04 20:56 51.15106 -0.17762 210 ft 1 kts 359°
2026-05-04 20:57 51.15120 -0.17763 206 ft 6 kts 355°
2026-05-04 20:57 51.15192 -0.17778 205 ft 15 kts 350°
2026-05-04 20:57 51.15268 -0.17699 205 ft 14 kts 78°
2026-05-04 20:57 51.15290 -0.17537 213 ft 15 kts 79°
2026-05-04 20:58 51.15301 -0.17432 210 ft 8 kts 79°
2026-05-04 20:58 51.15340 -0.17376 211 ft 8 kts
2026-05-04 20:58 51.15397 -0.17390 212 ft 8 kts 348°
2026-05-04 20:58 51.15467 -0.17415 205 ft 16 kts 348°
2026-05-04 20:59 51.15595 -0.17461 209 ft 19 kts 345°
2026-05-04 20:59 51.15699 -0.17497 210 ft 6 kts 348°
2026-05-04 20:59 51.15701 -0.17497 215 ft 0 kts 348°
2026-05-04 21:00 51.15718 -0.17503 209 ft 8 kts 348°
2026-05-04 21:01 51.15749 -0.17605 214 ft 12 kts 259°
2026-05-04 21:01 51.15731 -0.17730 213 ft 11 kts 257°
2026-05-04 21:01 51.15717 -0.17835 208 ft 6 kts 258°
2026-05-04 21:01 51.15730 -0.17867 213 ft 3 kts 332°
2026-05-04 21:02 51.15747 -0.17876 207 ft 2 kts 343°
2026-05-04 21:02 51.15757 -0.17880 207 ft 1 kts 345°
2026-05-04 21:02 51.15767 -0.17884 205 ft 1 kts 346°
2026-05-04 21:02 51.15773 -0.17886 205 ft 0 kts 346°
2026-05-04 21:03 51.15781 -0.17889 213 ft 1 kts 346°
2026-05-04 21:03 51.15782 -0.17890 212 ft 0 kts 346°